Location: Newark
(41.0400°S, 62.7845°W)
Time: 16:35:56
(UTC+00:00)

Vanguard 2 Rocket - Pass Details

Date: 07 December 2021
Orbit: 553 x 3325 km, 32.9° (Epoch: 23 January)

Event Time Altitude Azimuth Distance (km) Brightness Sun altitude
Rises 14:06:23 0° 262° (W) 6,177 10.9 59.5°
Reaches altitude 10° 14:11:51 10° 272° (W) 4,660 10.4 60.4°
Maximum altitude 14:21:00 26° 321° (NW) 2,620 9.6 61.8°
Drops below altitude 10° 14:27:02 10° 15° (NNE) 2,966 10.0 62.8°
Sets 14:29:40 0° 29° (NNE) 3,616 10.3 63.2°
